Location: Caltech
(34.1382°N, 118.1253°W)
Time: 03:05:15
(UTC-07:00)

BREEZE M DEB (TANK) - Visible Passes

Search period start: 31 May 2016 00:00
Search period end: 10 June 2016 00:00
Orbit: 336 x 13713 km, 49.6° (Epoch: 30 May)

Date Brightness Start Highest point End Pass type
(mag) Time Alt. Az. Time Alt. Az. Time Alt. Az.
31 May 6.5 04:48:55 10° WNW 05:10:14 35° N 05:16:13 10° ENE visible
31 May 8.4 20:00:12 10° S 21:35:42 44° ESE 22:07:03 10° ENE visible
01 Jun 7.3 01:04:32 10° WSW 02:24:37 62° NW 02:37:23 10° NE visible
01 Jun 8.1 21:46:24 10° SSW 23:34:45 75° SE 23:58:01 10° NE visible
02 Jun 6.8 03:45:34 10° W 04:18:07 40° NNW 04:25:38 10° NE visible
02 Jun 8.5 19:14:26 10° SSE 20:40:50 35° ESE 21:14:10 10° ENE visible
02 Jun 7.5 23:56:28 10° SW 01:31:26 72° NW 01:46:46 10° NE visible
03 Jun 8.2 20:51:33 10° S 22:39:37 65° SE 23:06:45 10° NE visible
04 Jun 7.1 02:36:28 10° W 03:25:40 46° NNW 03:35:02 10° NE visible
04 Jun 7.7 22:52:40 10° SW 00:37:40 83° NW 00:56:01 10° NE visible
05 Jun 6.3 05:01:22 10° WNW 05:18:29 36° N 05:23:35 10° ENE visible
05 Jun 8.3 19:59:17 10° S 21:44:09 55° ESE 22:15:06 10° ENE visible
06 Jun 7.3 01:23:21 10° WSW 02:32:52 54° NNW 02:44:23 10° NE visible
06 Jun 8.0 21:52:36 10° SSW 23:43:13 87° SE 00:05:05 10° NE visible
07 Jun 6.6 04:01:15 10° WNW 04:26:22 38° N 04:32:50 10° ENE visible
07 Jun 8.4 19:09:48 10° S 20:48:41 46° ESE 21:22:53 10° ENE visible
08 Jun 7.5 00:11:19 10° WSW 01:39:37 63° NNW 01:53:39 10° NE visible
08 Jun 8.2 20:55:32 10° SSW 22:48:04 76° SE 23:13:55 10° NE visible
09 Jun 7.0 02:55:53 10° W 03:33:55 42° NNW 03:42:04 10° ENE visible
